TimeCST,TemperatureF,Dew PointF,Humidity,Sea Level PressureIn,VisibilityMPH,Wind Direction,Wind SpeedMPH,Gust SpeedMPH,PrecipitationIn,Events,Conditions,WindDirDegrees,DateUTC
12:00 AM,76,75,97,29.92,12,West,3.5,,,,Partly Cloudy,270,2013-11-07 06:00:00
3:00 AM,75,74,95,29.90,12,West,5.8,,,,Partly Cloudy,280,2013-11-07 09:00:00
5:00 AM,75.2,73.4,94,29.89,6.2,WNW,5.8,-,N/A,,Mostly Cloudy,300,2013-11-07 11:00:00
6:00 AM,75,75,99,29.93,12,WNW,5.8,,,,Mostly Cloudy,300,2013-11-07 12:00:00
6:00 AM,75.2,75.2,100,29.92,6.2,WNW,5.8,-,N/A,,Mostly Cloudy,300,2013-11-07 12:00:00
7:00 AM,77.0,75.2,94,29.95,6.2,West,6.9,-,N/A,,Mostly Cloudy,280,2013-11-07 13:00:00
8:00 AM,77.0,75.2,94,29.95,6.2,NW,6.9,-,N/A,,Mostly Cloudy,320,2013-11-07 14:00:00
9:00 AM,78,75,89,29.99,12,NW,5.8,,,,Mostly Cloudy,310,2013-11-07 15:00:00
9:00 AM,78.8,75.2,89,29.98,6.2,NW,5.8,-,N/A,,Mostly Cloudy,310,2013-11-07 15:00:00
10:00 AM,78.8,75.2,89,29.98,6.2,NW,9.2,-,N/A,,Mostly Cloudy,320,2013-11-07 16:00:00
11:00 AM,80.6,75.2,84,29.98,6.2,NNW,9.2,-,N/A,,Mostly Cloudy,330,2013-11-07 17:00:00
12:00 PM,82,76,77,29.95,12,NW,8.1,,,,,310,2013-11-07 18:00:00
12:00 PM,82.4,75.2,79,29.95,6.2,NW,8.1,-,N/A,,Mostly Cloudy,310,2013-11-07 18:00:00
1:00 PM,84.2,77.0,79,29.89,6.2,NW,10.4,-,N/A,,Mostly Cloudy,320,2013-11-07 19:00:00
2:00 PM,84.2,73.4,70,29.86,6.2,NW,9.2,-,N/A,,Mostly Cloudy,320,2013-11-07 20:00:00
3:00 PM,83,75,71,29.87,12,NW,8.1,,,,Scattered Clouds,320,2013-11-07 21:00:00
3:00 PM,84.2,75.2,74,29.86,6.2,NW,8.1,-,N/A,,Mostly Cloudy,320,2013-11-07 21:00:00
4:00 PM,84.2,77.0,79,29.87,6.2,NW,4.6,-,N/A,,Mostly Cloudy,320,2013-11-07 22:00:00
5:00 PM,82.4,77.0,84,29.89,6.2,NNW,2.3,-,N/A,,Mostly Cloudy,340,2013-11-07 23:00:00
6:00 PM,81,78,87,29.89,12,Calm,Calm,,,,Scattered Clouds,,2013-11-08 00:00:00
6:00 PM,80.6,77.0,89,29.89,6.2,Calm,Calm,-,N/A,,Mostly Cloudy,0,2013-11-08 00:00:00